TimeEST,TemperatureF,Dew PointF,Humidity,Sea Level PressureIn,VisibilityMPH,Wind Direction,Wind SpeedMPH,Gust SpeedMPH,PrecipitationIn,Events,Conditions,WindDirDegrees,DateUTC
12:52 AM,30.0,23.0,75,29.70,10.0,Variable,3.5,-,N/A,,Overcast,0,2013-03-02 05:52:00
1:52 AM,30.0,21.9,72,29.69,10.0,Variable,4.6,-,N/A,,Overcast,0,2013-03-02 06:52:00
1:59 AM,30.2,23.0,75,29.64,10.0,NNW,4.6,-,N/A,,Overcast,340,2013-03-02 06:59:00
2:52 AM,30.0,21.9,72,29.69,10.0,Variable,3.5,-,N/A,,Overcast,0,2013-03-02 07:52:00
3:52 AM,30.0,21.9,72,29.68,10.0,NNW,6.9,-,N/A,,Overcast,340,2013-03-02 08:52:00
4:52 AM,30.0,21.9,72,29.68,10.0,NNW,8.1,-,N/A,,Overcast,330,2013-03-02 09:52:00
5:52 AM,30.0,21.9,72,29.68,10.0,Variable,3.5,-,N/A,,Overcast,0,2013-03-02 10:52:00
6:52 AM,30.0,21.9,72,29.69,10.0,Variable,6.9,-,N/A,,Overcast,0,2013-03-02 11:52:00
7:52 AM,30.9,21.9,69,29.69,10.0,NNW,8.1,-,N/A,,Mostly Cloudy,340,2013-03-02 12:52:00
8:52 AM,32.0,23.0,69,29.69,10.0,NNW,8.1,-,N/A,,Overcast,330,2013-03-02 13:52:00
9:52 AM,33.1,23.0,66,29.69,10.0,NNW,5.8,-,N/A,,Overcast,340,2013-03-02 14:52:00
10:52 AM,33.1,24.1,70,29.69,10.0,North,6.9,-,N/A,,Overcast,350,2013-03-02 15:52:00
11:52 AM,34.0,25.0,70,29.68,10.0,Variable,4.6,-,N/A,,Overcast,0,2013-03-02 16:52:00
12:52 PM,34.0,25.0,70,29.66,10.0,Variable,6.9,-,N/A,,Overcast,0,2013-03-02 17:52:00
1:52 PM,35.1,24.1,64,29.65,10.0,Variable,3.5,-,N/A,,Overcast,0,2013-03-02 18:52:00
2:52 PM,35.1,24.1,64,29.65,10.0,NW,4.6,-,N/A,,Overcast,320,2013-03-02 19:52:00
3:52 PM,35.1,24.1,64,29.65,10.0,NW,6.9,-,N/A,,Overcast,310,2013-03-02 20:52:00
4:02 PM,33.8,23.0,65,29.61,10.0,NW,6.9,-,N/A,,Overcast,320,2013-03-02 21:02:00
4:52 PM,34.0,23.0,64,29.66,10.0,NW,6.9,-,N/A,,Overcast,310,2013-03-02 21:52:00
5:52 PM,33.1,21.0,61,29.67,10.0,NW,8.1,-,N/A,,Overcast,320,2013-03-02 22:52:00
6:52 PM,32.0,21.9,66,29.68,10.0,Variable,5.8,-,N/A,,Overcast,0,2013-03-02 23:52:00
7:18 PM,30.2,21.2,69,29.63,10.0,Variable,3.5,-,N/A,,Overcast,0,2013-03-03 00:18:00
8:52 PM,30.0,23.0,75,29.70,10.0,Variable,4.6,-,N/A,,Overcast,0,2013-03-03 01:52:00
9:43 PM,28.4,21.2,74,29.64,10.0,Variable,4.6,-,N/A,,Overcast,0,2013-03-03 02:43:00
9:52 PM,28.9,21.0,72,29.69,10.0,NNW,5.8,-,N/A,,Overcast,340,2013-03-03 02:52:00
10:09 PM,28.4,21.2,74,29.64,10.0,Variable,6.9,-,N/A,,Overcast,0,2013-03-03 03:09:00
10:25 PM,28.4,21.2,74,29.63,10.0,Variable,5.8,-,N/A,,Overcast,0,2013-03-03 03:25:00
10:52 PM,28.9,19.9,69,29.68,10.0,Variable,3.5,-,N/A,,Overcast,0,2013-03-03 03:52:00